,,Stat5,,Stat1,,Stat2,,Stat3,,Stat4,,Wind1,,Wind1,
time,status,PA1M_AVG,status,PR1M_SUM,status,RH1M_AVG,status,SR1M_AVG,status,TA1M_AVG,status,W1dAve1m,status,W1sAve1m,
2003-03-11, 00:00:01,VALID,918.152,VALID,0,VALID,95.5763,VALID,0.0509425,VALID,20.1247,VALID,140,VALID,0.271829,
2003-03-11, 00:01:01,VALID,918.171,VALID,0,VALID,96.0316,VALID,0.0509425,VALID,20.1468,VALID,140,VALID,0.0143581,
2003-03-11, 00:02:01,VALID,918.176,VALID,0,VALID,96.2923,VALID,0.0339617,VALID,20.1724,VALID,140,VALID,0,
2003-03-11, 00:03:00,VALID,918.185,VALID,0,VALID,96.2884,VALID,0.0339617,VALID,20.2047,VALID,140,VALID,0,
2003-03-11, 00:04:01,VALID,918.188,VALID,0,VALID,96.0939,VALID,0.0849042,VALID,20.2109,VALID,140,VALID,0.066907,
2003-03-11, 00:05:01,VALID,918.179,VALID,0,VALID,96.118,VALID,0.0679233,VALID,20.2139,VALID,140,VALID,0.294552,
2003-03-11, 00:06:00,VALID,918.168,VALID,0,VALID,96.5402,VALID,0.0509425,VALID,20.2669,VALID,143,VALID,0.227163,
2003-03-11, 00:07:01,VALID,918.157,VALID,0,VALID,96.8467,VALID,-0.0169808,VALID,20.3522,VALID,143,VALID,0.131334,
2003-03-11, 00:08:01,VALID,918.151,VALID,0,VALID,97.4787,VALID,-0.0679233,VALID,20.5048,VALID,143,VALID,0.31227,
2003-03-11, 00:09:01,VALID,918.14,VALID,0,VALID,97.5779,VALID,-0.0339617,VALID,20.6306,VALID,143,VALID,0.308494,
2003-03-11, 00:10:01,VALID,918.134,VALID,0,VALID,96.7653,VALID,-0.0849042,VALID,20.5587,VALID,144,VALID,0.461149,
2003-03-11, 00:11:01,VALID,918.107,VALID,0,VALID,97.0476,VALID,-0.0339617,VALID,20.5528,VALID,151,VALID,0.447266,
2003-03-11, 00:12:01,VALID,918.085,VALID,0,VALID,96.5351,VALID,-0.0849042,VALID,20.5369,VALID,152,VALID,0.457422,
2003-03-11, 00:13:01,VALID,918.049,VALID,0,VALID,96.1727,VALID,-0.101885,VALID,20.4553,VALID,155,VALID,0.751894,
2003-03-11, 00:14:01,VALID,918.016,VALID,0,VALID,96.7475,VALID,-0.0679233,VALID,20.4687,VALID,161,VALID,0.435113,
2003-03-11, 00:15:01,VALID,917.999,VALID,0,VALID,96.5695,VALID,-0.0679233,VALID,20.4946,VALID,154,VALID,0.460742,
2003-03-11, 00:16:01,VALID,917.995,VALID,0,VALID,95.9146,VALID,-0.0849042,VALID,20.4625,VALID,119,VALID,0.946259,
2003-03-11, 00:17:01,VALID,917.995,VALID,0,VALID,95.1008,VALID,-0.0849042,VALID,20.4079,VALID,54,VALID,0.71829,
2003-03-11, 00:18:01,VALID,917.979,VALID,0,VALID,94.6748,VALID,-0.101885,VALID,20.3591,VALID,70,VALID,0.901843,
2003-03-11, 00:19:01,VALID,917.979,VALID,0,VALID,94.5158,VALID,-0.101885,VALID,20.4111,VALID,80,VALID,0.818412,
2003-03-11, 00:20:01,VALID,917.987,VALID,0,VALID,94.0491,VALID,-0.0679233,VALID,20.4461,VALID,57,VALID,0.846278,
2003-03-11, 00:21:01,VALID,917.994,VALID,0,VALID,93.8203,VALID,-0.0849042,VALID,20.4359,VALID,66,VALID,0.972556,
2003-03-11, 00:22:01,VALID,918.014,VALID,0,VALID,93.6766,VALID,-0.0849042,VALID,20.4526,VALID,88,VALID,0.956926,
2003-03-11, 00:23:01,VALID,918.013,VALID,0,VALID,93.2455,VALID,-0.0849042,VALID,20.4722,VALID,81,VALID,1.14714,
2003-03-11, 00:24:01,VALID,918.014,VALID,0,VALID,92.85,VALID,-0.0679233,VALID,20.5234,VALID,94,VALID,1.22129,
2003-03-11, 00:25:01,VALID,918.014,VALID,0,VALID,92.4736,VALID,-0.0679233,VALID,20.5913,VALID,106,VALID,1.27794,
2003-03-11, 00:26:00,VALID,918.005,VALID,0,VALID,92.0718,VALID,-0.101885,VALID,20.6562,VALID,101,VALID,1.01584,
2003-03-11, 00:27:00,VALID,917.992,VALID,0,VALID,91.7107,VALID,-0.0509425,VALID,20.7206,VALID,86,VALID,1.45723,
2003-03-11, 00:28:00,VALID,917.996,VALID,0,VALID,91.4576,VALID,-0.0169808,VALID,20.7852,VALID,91,VALID,0.869555,
2003-03-11, 00:29:00,VALID,918.004,VALID,0,VALID,91.2783,VALID,-0.0849042,VALID,20.8275,VALID,118,VALID,1.20381,
2003-03-11, 00:30:00,VALID,917.999,VALID,0,VALID,90.9642,VALID,-0.0679233,VALID,20.8886,VALID,125,VALID,1.33694,
2003-03-11, 00:31:00,VALID,918.005,VALID,0,VALID,90.7125,VALID,-0.0849042,VALID,20.9465,VALID,113,VALID,1.06524,
2003-03-11, 00:32:00,VALID,917.985,VALID,0,VALID,90.6501,VALID,-0.0849042,VALID,20.9958,VALID,119,VALID,0.843061,
2003-03-11, 00:33:00,VALID,917.961,VALID,0,VALID,90.6273,VALID,-0.0849042,VALID,20.998,VALID,103,VALID,1.22356,
2003-03-11, 00:34:00,VALID,917.952,VALID,0,VALID,90.6451,VALID,-0.0849042,VALID,21.0144,VALID,81,VALID,0.727407,
2003-03-11, 00:35:00,VALID,917.967,VALID,0,VALID,90.5967,VALID,-0.0339617,VALID,21.0141,VALID,81,VALID,1.11892,
2003-03-11, 00:36:00,VALID,917.969,VALID,0,VALID,90.5611,VALID,-0.0339617,VALID,21.0203,VALID,125,VALID,0.778906,
2003-03-11, 00:37:00,VALID,917.957,VALID,0,VALID,90.6349,VALID,-0.0169808,VALID,21.026,VALID,186,VALID,0.26089,
2003-03-11, 00:38:00,VALID,917.941,VALID,0,VALID,90.6285,VALID,0.0169808,VALID,21.0586,VALID,184,VALID,0.392578,
2003-03-11, 00:39:00,VALID,917.921,VALID,0,VALID,90.6349,VALID,0,VALID,21.0683,VALID,150,VALID,0.657227,
2003-03-11, 00:40:00,VALID,917.899,VALID,0,VALID,90.659,VALID,0,VALID,21.0653,VALID,134,VALID,1.27202,
2003-03-11, 00:41:00,VALID,917.88,VALID,0,VALID,90.7379,VALID,0,VALID,21.0589,VALID,147,VALID,1.00207,
2003-03-11, 00:42:00,VALID,917.874,VALID,0,VALID,90.7786,VALID,0,VALID,21.0484,VALID,138,VALID,0.532652,
2003-03-11, 00:43:00,VALID,917.86,VALID,0,VALID,90.8116,VALID,0,VALID,21.0457,VALID,146,VALID,1.07348,
2003-03-11, 00:44:00,VALID,917.854,VALID,0,VALID,90.8511,VALID,0,VALID,21.0422,VALID,138,VALID,1.03745,
2003-03-11, 00:45:00,VALID,917.826,VALID,0,VALID,90.8918,VALID,-0.0339617,VALID,21.0325,VALID,146,VALID,1.15905,
2003-03-11, 00:46:00,VALID,917.811,VALID,0,VALID,90.9706,VALID,0,VALID,21.0247,VALID,135,VALID,0.607897,
2003-03-11, 00:47:00,VALID,917.803,VALID,0,VALID,91.0393,VALID,0,VALID,21.0327,VALID,134,VALID,0.280816,
2003-03-11, 00:48:00,VALID,917.779,VALID,0,VALID,91.0761,VALID,0.0169808,VALID,21.023,VALID,182,VALID,0.399219,
2003-03-11, 00:49:00,VALID,917.77,VALID,0,VALID,91.0393,VALID,-0.0169808,VALID,21.0292,VALID,125,VALID,0.377367,
2003-03-11, 00:50:00,VALID,917.785,VALID,0,VALID,91.0749,VALID,-0.0169808,VALID,21.0225,VALID,113,VALID,0.16862,
2003-03-11, 00:51:00,VALID,917.789,VALID,0,VALID,91.2313,VALID,0,VALID,21.0131,VALID,110,VALID,0.261133,
2003-03-11, 00:52:00,VALID,917.802,VALID,0,VALID,91.2351,VALID,0,VALID,20.9676,VALID,84,VALID,0.248816,
2003-03-11, 00:53:00,VALID,917.796,VALID,0,VALID,91.4118,VALID,-0.0169808,VALID,20.9452,VALID,54,VALID,0.4483,
2003-03-11, 00:54:00,VALID,917.797,VALID,0,VALID,91.4856,VALID,0,VALID,20.939,VALID,58,VALID,0.405849,
2003-03-11, 00:55:00,VALID,917.78,VALID,0,VALID,91.6585,VALID,0,VALID,20.9201,VALID,4,VALID,0.946157,
2003-03-11, 00:56:00,VALID,917.759,VALID,0,VALID,91.7348,VALID,0,VALID,20.9067,VALID,10,VALID,0.996324,
2003-03-11, 00:57:00,VALID,917.752,VALID,0,VALID,91.8391,VALID,0,VALID,20.8905,VALID,5,VALID,1.20733,
2003-03-11, 00:58:00,VALID,917.751,VALID,0,VALID,91.9128,VALID,-0.0169808,VALID,20.8773,VALID,19,VALID,1.16364,
2003-03-11, 00:59:00,VALID,917.741,VALID,0,VALID,91.9345,VALID,-0.0169808,VALID,20.8746,VALID,7,VALID,1.11155,
2003-03-11, 01:00:00,VALID,917.734,VALID,0,VALID,92.1557,VALID,-0.0169808,VALID,20.8709,VALID,12,VALID,0.870313,
2003-03-11, 01:01:00,VALID,917.748,VALID,0,VALID,92.1621,VALID,0,VALID,20.8609,VALID,19,VALID,0.688684,
2003-03-11, 01:02:00,VALID,917.754,VALID,0,VALID,92.363,VALID,0.0169808,VALID,20.8124,VALID,19,VALID,0.769965,
2003-03-11, 01:03:00,VALID,917.761,VALID,0,VALID,92.6516,VALID,0.0169808,VALID,20.7414,VALID,11,VALID,0.891602,
2003-03-11, 01:04:00,VALID,917.767,VALID,0,VALID,92.9708,VALID,0,VALID,20.6772,VALID,8,VALID,0.571496,
2003-03-11, 01:05:00,VALID,917.766,VALID,0,VALID,93.3065,VALID,0,VALID,20.6347,VALID,12,VALID,0.646829,
2003-03-11, 01:06:00,VALID,917.751,VALID,0,VALID,93.6321,VALID,0,VALID,20.5994,VALID,12,VALID,0.689503,
2003-03-11, 01:07:00,VALID,917.724,VALID,0,VALID,93.8851,VALID,0,VALID,20.5962,VALID,358,VALID,0.702069,
2003-03-11, 01:08:00,VALID,917.714,VALID,0,VALID,93.9678,VALID,-0.0169808,VALID,20.5989,VALID,358,VALID,0.389476,
2003-03-11, 01:09:00,VALID,917.705,VALID,0,VALID,93.8927,VALID,-0.0169808,VALID,20.6024,VALID,356,VALID,0.298277,
2003-03-11, 01:10:00,VALID,917.691,VALID,0,VALID,93.9347,VALID,0,VALID,20.6027,VALID,356,VALID,0.0367399,
2003-03-11, 01:11:00,VALID,917.685,VALID,0,VALID,93.9678,VALID,-0.0339617,VALID,20.6156,VALID,356,VALID,0.12717,
2003-03-11, 01:12:00,VALID,917.675,VALID,0,VALID,93.936,VALID,0,VALID,20.6151,VALID,101,VALID,0.645703,
2003-03-11, 01:13:00,VALID,917.662,VALID,0,VALID,93.9474,VALID,0.0169808,VALID,20.5919,VALID,162,VALID,0.690104,
2003-03-11, 01:14:00,VALID,917.676,VALID,0,VALID,94.0275,VALID,0.0169808,VALID,20.5822,VALID,161,VALID,0.369792,
2003-03-11, 01:15:00,VALID,917.676,VALID,0,VALID,94.0809,VALID,0,VALID,20.5758,VALID,161,VALID,0.131445,
2003-03-11, 01:16:00,VALID,917.663,VALID,0,VALID,94.1013,VALID,0,VALID,20.5636,VALID,161,VALID,0.282907,
2003-03-11, 01:17:00,VALID,917.661,VALID,0,VALID,94.1649,VALID,0,VALID,20.5507,VALID,160,VALID,0.477482,
2003-03-11, 01:18:00,VALID,917.648,VALID,0,VALID,94.3035,VALID,0,VALID,20.5407,VALID,159,VALID,0.40024,
2003-03-11, 01:19:00,VALID,917.651,VALID,0,VALID,94.3492,VALID,-0.0169808,VALID,20.5512,VALID,158,VALID,0.160684,
2003-03-11, 01:20:00,VALID,917.632,VALID,0,VALID,94.4001,VALID,0,VALID,20.5544,VALID,151,VALID,0.325138,
2003-03-11, 01:21:00,VALID,917.617,VALID,0,VALID,94.4522,VALID,-0.0169808,VALID,20.5542,VALID,123,VALID,0.45653,
2003-03-11, 01:22:00,VALID,917.595,VALID,0,VALID,94.4141,VALID,0,VALID,20.551,VALID,106,VALID,0.467272,
2003-03-11, 01:23:00,VALID,917.579,VALID,0,VALID,94.4599,VALID,-0.0339617,VALID,20.5219,VALID,137,VALID,1.0102,
2003-03-11, 01:24:00,VALID,917.555,VALID,0,VALID,94.5145,VALID,-0.0169808,VALID,20.5316,VALID,143,VALID,0.866016,
2003-03-11, 01:25:00,VALID,917.53,VALID,0,VALID,94.4802,VALID,0,VALID,20.5338,VALID,150,VALID,1.15743,
2003-03-11, 01:26:00,VALID,917.493,VALID,0,VALID,94.2933,VALID,0,VALID,20.5601,VALID,150,VALID,1.2296,
2003-03-11, 01:27:00,VALID,917.45,VALID,0,VALID,94.1064,VALID,0.0339617,VALID,20.5793,VALID,154,VALID,0.923047,
2003-03-11, 01:28:00,VALID,917.411,VALID,0,VALID,93.9792,VALID,0,VALID,20.6218,VALID,158,VALID,0.373106,
2003-03-11, 01:29:00,VALID,917.375,VALID,0,VALID,93.8126,VALID,0,VALID,20.6471,VALID,143,VALID,0.427849,
2003-03-11, 01:30:00,VALID,917.376,VALID,0,VALID,93.6333,VALID,-0.0169808,VALID,20.6864,VALID,123,VALID,0.415665,
2003-03-11, 01:31:00,VALID,917.379,VALID,0,VALID,93.4515,VALID,0,VALID,20.6991,VALID,122,VALID,0.782095,
2003-03-11, 01:32:00,VALID,917.375,VALID,0,VALID,93.4299,VALID,0,VALID,20.722,VALID,119,VALID,1.24586,
2003-03-11, 01:33:00,VALID,917.367,VALID,0,VALID,93.393,VALID,-0.0339617,VALID,20.7123,VALID,149,VALID,1.24659,
2003-03-11, 01:34:00,VALID,917.342,VALID,0,VALID,93.3358,VALID,0,VALID,20.7187,VALID,141,VALID,1.26985,
2003-03-11, 01:35:00,VALID,917.315,VALID,0,VALID,93.2251,VALID,0,VALID,20.7349,VALID,134,VALID,0.850911,
2003-03-11, 01:36:00,VALID,917.278,VALID,0,VALID,93.2493,VALID,-0.0169808,VALID,20.7408,VALID,148,VALID,0.804883,
2003-03-11, 01:37:00,VALID,917.255,VALID,0,VALID,93.3332,VALID,0.0509425,VALID,20.7438,VALID,97,VALID,0.578125,
2003-03-11, 01:38:00,VALID,917.242,VALID,0,VALID,93.3091,VALID,0,VALID,20.7408,VALID,144,VALID,0.675781,
2003-03-11, 01:39:00,VALID,917.204,VALID,0,VALID,93.0751,VALID,0.0169808,VALID,20.7632,VALID,150,VALID,1.01094,
2003-03-11, 01:40:00,VALID,917.167,VALID,0,VALID,92.8678,VALID,0,VALID,20.8017,VALID,83,VALID,0.579545,
2003-03-11, 01:41:00,VALID,917.159,VALID,0,VALID,92.7229,VALID,0,VALID,20.8375,VALID,61,VALID,0.48943,
2003-03-11, 01:42:00,VALID,917.147,VALID,0,VALID,92.6402,VALID,0.0339617,VALID,20.8572,VALID,31,VALID,0.267628,
2003-03-11, 01:43:00,VALID,917.137,VALID,0,VALID,92.5512,VALID,0.0169808,VALID,20.8733,VALID,45,VALID,0.336571,
2003-03-11, 01:44:00,VALID,917.129,VALID,0,VALID,92.5067,VALID,0.0339617,VALID,20.8825,VALID,112,VALID,1.00988,
2003-03-11, 01:45:00,VALID,917.116,VALID,0,VALID,92.5029,VALID,0.0169808,VALID,20.9091,VALID,63,VALID,0.601963,
2003-03-11, 01:46:00,VALID,917.098,VALID,0,VALID,92.4647,VALID,0.0169808,VALID,20.9054,VALID,103,VALID,0.6894,
2003-03-11, 01:47:00,VALID,917.068,VALID,0,VALID,92.5067,VALID,0.0509425,VALID,20.9248,VALID,127,VALID,0.95421,
2003-03-11, 01:48:00,VALID,917.048,VALID,0,VALID,92.555,VALID,0.0339617,VALID,20.9245,VALID,100,VALID,0.469336,
2003-03-11, 01:49:00,VALID,917.048,VALID,0,VALID,92.5576,VALID,0.0339617,VALID,20.9312,VALID,118,VALID,0.243608,
2003-03-11, 01:50:00,VALID,917.034,VALID,0,VALID,92.3833,VALID,0,VALID,20.9345,VALID,123,VALID,0.457682,
2003-03-11, 01:51:00,VALID,917.027,VALID,0,VALID,92.2384,VALID,0.0169808,VALID,20.9638,VALID,146,VALID,0.405859,
2003-03-11, 01:52:00,VALID,917.022,VALID,0,VALID,92.1506,VALID,-0.101885,VALID,21.0141,VALID,65,VALID,0.516809,
2003-03-11, 01:53:00,VALID,916.998,VALID,0,VALID,92.0222,VALID,-0.0849042,VALID,21.036,VALID,35,VALID,0.438879,
2003-03-11, 01:54:00,VALID,916.983,VALID,0,VALID,91.6687,VALID,-0.0849042,VALID,21.0688,VALID,115,VALID,0.753405,
2003-03-11, 01:55:00,VALID,916.966,VALID,0,VALID,91.4983,VALID,-0.101885,VALID,21.0949,VALID,228,VALID,0.51098,
2003-03-11, 01:56:00,VALID,916.947,VALID,0,VALID,91.6496,VALID,-0.101885,VALID,21.0984,VALID,222,VALID,0.23989,
2003-03-11, 01:57:00,VALID,916.928,VALID,0,VALID,91.6941,VALID,-0.101885,VALID,21.0917,VALID,239,VALID,0.536258,
2003-03-11, 01:58:00,VALID,916.889,VALID,0,VALID,91.8289,VALID,-0.101885,VALID,21.036,VALID,206,VALID,0.561655,
2003-03-11, 01:59:00,VALID,916.861,VALID,0,VALID,91.8099,VALID,-0.101885,VALID,21.0042,VALID,221,VALID,0.513455,
2003-03-11, 02:00:00,VALID,916.816,VALID,0,VALID,91.7717,VALID,-0.0849042,VALID,21.0271,VALID,213,VALID,0.285742,
2003-03-11, 02:01:00,VALID,916.801,VALID,0,VALID,91.6725,VALID,-0.101885,VALID,21.0524,VALID,310,VALID,0.560369,
2003-03-11, 02:02:00,VALID,916.781,VALID,0,VALID,91.8861,VALID,-0.0849042,VALID,21.036,VALID,355,VALID,0.433377,
2003-03-11, 02:03:00,VALID,916.775,VALID,0,VALID,91.876,VALID,-0.0849042,VALID,21.0556,VALID,71,VALID,0.644336,
2003-03-11, 02:04:00,VALID,916.76,VALID,0,VALID,91.6865,VALID,-0.101885,VALID,21.0395,VALID,53,VALID,0.578598,
2003-03-11, 02:05:00,VALID,916.711,VALID,0,VALID,91.6547,VALID,-0.101885,VALID,21.0298,VALID,9,VALID,0.409926,
2003-03-11, 02:06:00,VALID,916.711,VALID,0,VALID,91.7755,VALID,-0.101885,VALID,21.0397,VALID,295,VALID,0.530449,
2003-03-11, 02:07:00,VALID,916.687,VALID,0,VALID,91.7806,VALID,-0.0849042,VALID,21.0365,VALID,321,VALID,0.365076,
2003-03-11, 02:08:00,VALID,916.662,VALID,0,VALID,91.8709,VALID,-0.0849042,VALID,21.0327,VALID,18,VALID,0.230239,
2003-03-11, 02:09:00,VALID,916.683,VALID,0,VALID,91.759,VALID,-0.101885,VALID,21.0166,VALID,18,VALID,0.136619,
2003-03-11, 02:10:00,VALID,916.67,VALID,0,VALID,91.7844,VALID,-0.0679233,VALID,21.0064,VALID,19,VALID,0.486064,
2003-03-11, 02:11:00,VALID,916.673,VALID,0,VALID,91.6064,VALID,-0.0849042,VALID,21.0069,VALID,22,VALID,0.490451,
2003-03-11, 02:12:00,VALID,916.692,VALID,0,VALID,91.6751,VALID,-0.0679233,VALID,21.0004,VALID,30,VALID,0.569727,
2003-03-11, 02:13:00,VALID,916.689,VALID,0,VALID,91.5301,VALID,-0.0679233,VALID,20.991,VALID,44,VALID,0.482244,
2003-03-11, 02:14:00,VALID,916.702,VALID,0,VALID,91.4907,VALID,-0.0339617,VALID,20.9848,VALID,66,VALID,0.546658,
2003-03-11, 02:15:00,VALID,916.7,VALID,0,VALID,91.5237,VALID,-0.0849042,VALID,20.9716,VALID,112,VALID,0.444531,
2003-03-11, 02:16:00,VALID,916.693,VALID,0,VALID,91.6369,VALID,-0.0849042,VALID,20.9619,VALID,132,VALID,0.595644,
2003-03-11, 02:17:00,VALID,916.685,VALID,0,VALID,91.979,VALID,-0.0849042,VALID,20.9587,VALID,143,VALID,0.569164,
2003-03-11, 02:18:00,VALID,916.698,VALID,0,VALID,92.0807,VALID,-0.0679233,VALID,20.9425,VALID,143,VALID,0.654247,
2003-03-11, 02:19:00,VALID,916.69,VALID,0,VALID,92.1557,VALID,-0.101885,VALID,20.9196,VALID,139,VALID,0.627323,
2003-03-11, 02:20:00,VALID,916.683,VALID,0,VALID,92.1112,VALID,-0.101885,VALID,20.8911,VALID,130,VALID,0.943244,
2003-03-11, 02:21:00,VALID,916.683,VALID,0,VALID,91.9523,VALID,-0.0849042,VALID,20.8776,VALID,129,VALID,0.834936,
2003-03-11, 02:22:00,VALID,916.673,VALID,0,VALID,91.6878,VALID,0,VALID,20.8666,VALID,127,VALID,0.752111,
2003-03-11, 02:23:00,VALID,916.682,VALID,0,VALID,91.2351,VALID,0,VALID,20.886,VALID,134,VALID,0.575521,
2003-03-11, 02:24:00,VALID,916.682,VALID,0,VALID,90.9782,VALID,0.0169808,VALID,20.925,VALID,141,VALID,0.600195,
2003-03-11, 02:25:00,VALID,916.675,VALID,0,VALID,90.9185,VALID,0.0169808,VALID,20.9797,VALID,142,VALID,0.53267,
2003-03-11, 02:26:00,VALID,916.662,VALID,0,VALID,90.8714,VALID,0,VALID,20.9859,VALID,144,VALID,0.570747,
2003-03-11, 02:27:00,VALID,916.652,VALID,0,VALID,90.7824,VALID,0,VALID,21.0187,VALID,141,VALID,0.271484,
2003-03-11, 02:28:00,VALID,916.649,VALID,0,VALID,90.6819,VALID,0.0169808,VALID,21.022,VALID,141,VALID,0.130208,
2003-03-11, 02:29:00,VALID,916.66,VALID,0,VALID,90.6107,VALID,0.0509425,VALID,21.0279,VALID,141,VALID,0.163833,
2003-03-11, 02:30:00,VALID,916.666,VALID,0,VALID,90.6832,VALID,0,VALID,21.0408,VALID,141,VALID,0.0120192,
2003-03-11, 02:31:00,VALID,916.684,VALID,0,VALID,90.6641,VALID,0.0679233,VALID,21.0637,VALID,141,VALID,0.292019,
2003-03-11, 02:32:00,VALID,916.693,VALID,0,VALID,90.6705,VALID,0.0169808,VALID,21.0411,VALID,211,VALID,0.579963,
2003-03-11, 02:33:00,VALID,916.688,VALID,0,VALID,90.7061,VALID,0,VALID,21.0118,VALID,259,VALID,0.83774,
2003-03-11, 02:34:00,VALID,916.682,VALID,0,VALID,91.2325,VALID,0.0169808,VALID,20.9864,VALID,262,VALID,1.03716,
2003-03-11, 02:35:00,VALID,916.666,VALID,0,VALID,91.567,VALID,0,VALID,20.9213,VALID,253,VALID,0.643663,
2003-03-11, 02:36:00,VALID,916.664,VALID,0,VALID,92.1138,VALID,0.0169808,VALID,20.8927,VALID,254,VALID,1.07949,
2003-03-11, 02:37:00,VALID,916.647,VALID,0,VALID,92.4304,VALID,-0.0679233,VALID,20.8483,VALID,255,VALID,0.952415,
2003-03-11, 02:38:00,VALID,916.654,VALID,0,VALID,92.6631,VALID,-0.0169808,VALID,20.8159,VALID,268,VALID,0.590712,
2003-03-11, 02:39:00,VALID,916.642,VALID,0,VALID,92.8004,VALID,-0.0169808,VALID,20.8127,VALID,256,VALID,0.452344,
2003-03-11, 02:40:00,VALID,916.656,VALID,0,VALID,92.7775,VALID,-0.0169808,VALID,20.806,VALID,257,VALID,0.709754,
2003-03-11, 02:41:00,VALID,916.675,VALID,0,VALID,92.733,VALID,0,VALID,20.8125,VALID,247,VALID,0.481158,
2003-03-11, 02:42:00,VALID,916.669,VALID,0,VALID,92.8246,VALID,0,VALID,20.8157,VALID,196,VALID,0.486979,
2003-03-11, 02:43:00,VALID,916.653,VALID,0,VALID,92.8068,VALID,-0.0169808,VALID,20.8192,VALID,146,VALID,0.559966,
2003-03-11, 02:44:00,VALID,916.649,VALID,0,VALID,92.9543,VALID,-0.0169808,VALID,20.8095,VALID,145,VALID,0.394531,
2003-03-11, 02:45:00,VALID,916.634,VALID,0,VALID,93.0026,VALID,-0.0169808,VALID,20.7998,VALID,153,VALID,0.791867,
2003-03-11, 02:46:00,VALID,916.616,VALID,0,VALID,93.0853,VALID,0,VALID,20.764,VALID,159,VALID,0.725084,
2003-03-11, 02:47:00,VALID,916.601,VALID,0,VALID,93.1845,VALID,-0.0169808,VALID,20.7483,VALID,177,VALID,0.607205,
2003-03-11, 02:48:00,VALID,916.601,VALID,0,VALID,93.1552,VALID,-0.0169808,VALID,20.7252,VALID,188,VALID,0.45,
2003-03-11, 02:49:00,VALID,916.647,VALID,0,VALID,93.2061,VALID,0,VALID,20.7284,VALID,186,VALID,0,
2003-03-11, 02:50:00,VALID,916.677,VALID,0,VALID,93.1959,VALID,0.0169808,VALID,20.7384,VALID,186,VALID,0,
2003-03-11, 02:51:00,VALID,916.693,VALID,0,VALID,93.1132,VALID,-0.0339617,VALID,20.7481,VALID,154,VALID,0.439844,
2003-03-11, 02:52:00,VALID,916.71,VALID,0,VALID,93.2023,VALID,-0.0169808,VALID,20.7349,VALID,154,VALID,0.458097,
2003-03-11, 02:53:00,VALID,916.724,VALID,0,VALID,93.1845,VALID,-0.0169808,VALID,20.7416,VALID,156,VALID,0.408778,
2003-03-11, 02:54:00,VALID,916.721,VALID,0,VALID,93.1552,VALID,-0.0169808,VALID,20.7414,VALID,183,VALID,0.479167,
2003-03-11, 02:55:00,VALID,916.727,VALID,0,VALID,93.1641,VALID,0,VALID,20.7613,VALID,200,VALID,0.222973,
2003-03-11, 02:56:00,VALID,916.735,VALID,0,VALID,93.1641,VALID,-0.0169808,VALID,20.7672,VALID,200,VALID,0.324449,
2003-03-11, 02:57:00,VALID,916.735,VALID,0,VALID,93.0967,VALID,-0.0169808,VALID,20.7769,VALID,198,VALID,0.332933,
2003-03-11, 02:58:00,VALID,916.749,VALID,0,VALID,93.0115,VALID,-0.0169808,VALID,20.7931,VALID,198,VALID,0.229096,
2003-03-11, 02:59:00,VALID,916.77,VALID,0,VALID,92.9568,VALID,-0.0339617,VALID,20.8162,VALID,198,VALID,0.366319,
2003-03-11, 03:00:00,VALID,916.776,VALID,0,VALID,92.9518,VALID,-0.0169808,VALID,20.8192,VALID,198,VALID,0.207031,
2003-03-11, 03:01:00,VALID,916.775,VALID,0,VALID,92.9479,VALID,-0.0169808,VALID,20.8095,VALID,198,VALID,0.124763,
2003-03-11, 03:02:00,VALID,916.777,VALID,0,VALID,92.864,VALID,-0.0509425,VALID,20.8192,VALID,201,VALID,0.284288,
2003-03-11, 03:03:00,VALID,916.785,VALID,0,VALID,92.7547,VALID,-0.0339617,VALID,20.8426,VALID,204,VALID,0.408008,
2003-03-11, 03:04:00,VALID,916.781,VALID,0,VALID,92.6122,VALID,-0.0169808,VALID,20.8356,VALID,205,VALID,0.33357,
2003-03-11, 03:05:00,VALID,916.79,VALID,0,VALID,92.5461,VALID,-0.0509425,VALID,20.8448,VALID,195,VALID,0.415901,
2003-03-11, 03:06:00,VALID,916.78,VALID,0,VALID,92.6021,VALID,-0.0169808,VALID,20.8711,VALID,175,VALID,0.306691,
2003-03-11, 03:07:00,VALID,916.774,VALID,0,VALID,92.8208,VALID,-0.0339617,VALID,20.8776,VALID,174,VALID,0.143792,
2003-03-11, 03:08:00,VALID,916.767,VALID,0,VALID,92.7648,VALID,-0.0339617,VALID,20.8711,VALID,172,VALID,0.767923,
2003-03-11, 03:09:00,VALID,916.762,VALID,0,VALID,92.2727,VALID,-0.0509425,VALID,20.8555,VALID,174,VALID,1.09675,
2003-03-11, 03:10:00,VALID,916.746,VALID,0,VALID,92.2079,VALID,-0.0509425,VALID,20.8456,VALID,177,VALID,0.727829,
2003-03-11, 03:11:00,VALID,916.744,VALID,0,VALID,92.2664,VALID,-0.0509425,VALID,20.8684,VALID,187,VALID,0.527778,
2003-03-11, 03:12:00,VALID,916.738,VALID,0,VALID,92.3147,VALID,-0.0509425,VALID,20.8714,VALID,177,VALID,0.431445,
2003-03-11, 03:13:00,VALID,916.734,VALID,0,VALID,92.3592,VALID,-0.0169808,VALID,20.8679,VALID,188,VALID,0.437737,
2003-03-11, 03:14:00,VALID,916.741,VALID,0,VALID,92.3986,VALID,-0.0169808,VALID,20.8773,VALID,217,VALID,0.122396,
2003-03-11, 03:15:00,VALID,916.726,VALID,0,VALID,92.3465,VALID,0,VALID,20.8801,VALID,191,VALID,0.118555,
2003-03-11, 03:16:00,VALID,916.721,VALID,0,VALID,92.3236,VALID,-0.0169808,VALID,20.9035,VALID,189,VALID,0.0300663,
2003-03-11, 03:17:00,VALID,916.701,VALID,0,VALID,92.2206,VALID,-0.0339617,VALID,20.897,VALID,191,VALID,0.28125,
2003-03-11, 03:18:00,VALID,916.689,VALID,0,VALID,92.185,VALID,-0.0169808,VALID,20.8773,VALID,194,VALID,0.263822,
2003-03-11, 03:19:00,VALID,916.668,VALID,0,VALID,92.1138,VALID,-0.0169808,VALID,20.8545,VALID,214,VALID,0.393159,
2003-03-11, 03:20:00,VALID,916.674,VALID,0,VALID,92.0387,VALID,-0.0169808,VALID,20.8515,VALID,227,VALID,0.356158,
2003-03-11, 03:21:00,VALID,916.665,VALID,0,VALID,92.0286,VALID,0,VALID,20.8483,VALID,227,VALID,0.320513,
2003-03-11, 03:22:00,VALID,916.664,VALID,0,VALID,91.8785,VALID,0.0509425,VALID,20.8793,VALID,227,VALID,0.46685,
2003-03-11, 03:23:00,VALID,916.642,VALID,0,VALID,91.5148,VALID,0.0849042,VALID,20.886,VALID,224,VALID,0.457465,
2003-03-11, 03:24:00,VALID,916.634,VALID,0,VALID,91.3851,VALID,0.0339617,VALID,20.9215,VALID,190,VALID,0.245312,
2003-03-11, 03:25:00,VALID,916.621,VALID,0,VALID,91.3292,VALID,0.0679233,VALID,20.9573,VALID,235,VALID,0.361742,
2003-03-11, 03:26:00,VALID,916.614,VALID,0,VALID,91.2071,VALID,0.0509425,VALID,20.9794,VALID,272,VALID,0.188585,
2003-03-11, 03:27:00,VALID,916.616,VALID,0,VALID,91.3241,VALID,0.0849042,VALID,20.9986,VALID,274,VALID,0.291797,
2003-03-11, 03:28:00,VALID,916.611,VALID,0,VALID,91.581,VALID,0.0509425,VALID,21.015,VALID,277,VALID,0.0381155,
2003-03-11, 03:29:00,VALID,916.612,VALID,0,VALID,91.759,VALID,0.0849042,VALID,21.0247,VALID,277,VALID,0,
2003-03-11, 03:30:00,VALID,916.6,VALID,0,VALID,91.9548,VALID,0.0679233,VALID,21.0056,VALID,277,VALID,0.00120192,
2003-03-11, 03:31:00,VALID,916.6,VALID,0,VALID,91.8187,VALID,0.0679233,VALID,20.9859,VALID,277,VALID,0,
2003-03-11, 03:32:00,VALID,916.596,VALID,0,VALID,91.5721,VALID,0.0849042,VALID,20.9633,VALID,277,VALID,0,
2003-03-11, 03:33:00,VALID,916.592,VALID,0,VALID,91.6089,VALID,0.0679233,VALID,20.9568,VALID,277,VALID,0.0010016,
2003-03-11, 03:34:00,VALID,916.572,VALID,0,VALID,92.0311,VALID,0.0679233,VALID,20.9668,VALID,277,VALID,0,